Wind_Speed
16 16 15 19 24 28 33 37 36 37 35 32 32 31 32 35 34 37 37 37 36 34 32 31 32 32 33 31 29 27 25 23
15 17 19 19 17 18 22 27 37 40 40 39 37 37 37 35 37 44 46 41 33 39 37 36 35 36 36 36 34 31 31 27
12 12 15 17 18 18 18 19 24 32 40 40 41 40 39 41 42 42 41 40 37 44 44 42 40 40 40 39 39 36 34 33
14 12 12 14 16 17 18 19 18 22 28 35 37 39 41 43 43 46 46 43 48 39 46 47 46 44 45 44 42 42 39 37
14 14 15 15 13 15 17 18 19 19 20 29 29 35 37 39 42 43 47 51 54 44 40 45 45 51 50 49 47 46 44 40
17 17 17 19 20 19 18 18 21 22 21 21 28 31 32 35 37 39 42 49 54 55 32 40 43 53 50 54 50 50 48 45
20 18 18 17 22 23 24 24 22 22 25 25 22 28 32 33 36 37 39 40 45 48 50 46 47 44 46 39 54 54 51 49
20 19 16 19 20 26 25 26 24 23 24 25 26 24 27 32 35 37 37 39 39 39 42 46 47 44 42 62 44 58 51 54
17 16 15 18 18 21 24 25 22 23 23 24 24 25 25 26 32 36 37 37 38 37 38 38 36 38 41 61 65 37 44 57
15 17 17 14 15 16 21 22 21 20 21 23 23 22 25 25 27 30 36 39 37 37 36 34 33 32 35 38 46 45 42 47
15 15 18 12 14 14 17 19 21 21 21 22 24 22 22 24 25 26 29 35 39 39 37 35 32 34 31 34 31 37 43 51
15 15 14 14 14 15 17 22 21 21 22 22 22 23 22 22 24 25 26 28 34 40 41 38 36 34 35 36 35 35 38 37
15 15 14 14 15 16 17 23 23 22 22 23 24 23 23 24 24 25 25 26 27 30 37 41 40 39 37 36 37 36 37 40
15 16 16 16 17 19 20 24 27 26 26 25 26 25 25 25 25 25 25 25 24 25 28 35 39 41 40 40 40 40 41 43
15 16 16 17 19 21 24 26 27 27 27 28 27 27 27 27 27 26 26 27 27 25 23 26 35 41 42 43 43 45 46 46
17 17 18 19 20 21 24 26 29 30 30 29 28 27 26 25 26 25 25 25 26 27 28 26 25 34 40 41 44 47 48 50
19 20 20 21 20 22 23 28 29 29 28 29 29 29 27 26 26 26 26 25 25 25 25 28 27 26 27 33 36 42 49 52
21 22 23 23 22 21 23 25 26 27 27 28 28 28 28 27 27 27 27 26 24 24 24 24 26 28 26 27 29 32 36 42
21 22 24 23 23 23 24 26 26 27 27 26 26 26 27 27 26 27 27 27 26 25 24 25 25 26 27 26 27 29 31 32
Wind_Direction
336 325 313 290 275 268 262 254 249 250 252 254 255 253 253 249 247 244 238 238 235 233 233 235 237 239 243 241 244 249 247 251
332 330 328 321 313 297 277 265 257 251 248 249 251 252 251 251 248 252 261 235 239 239 235 234 236 239 242 247 244 244 251 249
345 328 321 323 325 319 314 302 274 260 253 253 250 253 253 252 250 253 256 256 235 243 237 236 238 240 241 242 247 247 246 252
356 337 332 329 330 329 323 320 314 284 264 255 255 254 255 254 255 254 255 253 250 246 238 235 235 239 242 243 243 247 248 249
349 337 325 326 327 330 327 324 321 314 289 265 262 256 257 259 257 257 254 255 260 267 251 240 241 238 241 242 244 245 247 248
332 332 314 315 311 322 328 322 313 317 319 294 266 264 261 261 261 259 258 253 256 261 270 258 241 250 243 243 242 244 246 247
322 320 314 316 301 307 325 327 319 313 312 313 297 270 268 266 264 264 261 260 259 261 262 264 257 260 237 245 246 244 245 245
325 319 313 308 308 302 317 324 320 315 313 310 309 302 277 272 271 267 265 262 263 263 268 267 262 270 254 235 247 246 244 244
337 343 322 307 309 310 307 319 318 311 312 311 308 309 307 290 277 274 273 270 267 264 264 270 267 266 256 269 251 246 240 240
344 344 326 319 314 321 308 313 313 309 307 309 315 313 311 309 299 285 276 274 273 271 269 264 265 269 265 259 261 255 242 239
341 345 322 341 322 317 318 314 313 312 310 307 310 318 319 315 311 302 289 279 278 276 272 271 264 261 259 257 263 268 261 253
337 339 334 334 329 319 324 318 321 317 312 311 307 310 314 316 319 314 305 294 282 278 276 273 270 262 256 254 249 256 257 253
325 328 326 324 323 319 321 322 324 323 321 318 316 312 311 314 312 312 315 309 299 287 277 276 272 268 259 257 252 251 250 256
318 319 320 317 316 315 315 316 317 320 320 318 317 316 315 312 310 308 308 312 314 305 293 282 278 272 265 259 256 253 252 253
311 315 314 312 313 315 316 317 318 318 318 315 314 313 311 311 312 309 307 306 309 314 314 305 287 280 274 265 259 255 254 253
300 305 309 309 309 309 311 315 316 316 318 320 316 310 306 306 305 307 308 308 307 307 309 311 313 289 280 276 267 260 256 253
295 297 301 304 303 302 301 308 311 313 315 317 318 315 309 304 304 305 306 310 312 311 310 309 309 307 302 291 284 272 262 257
294 294 299 300 301 299 304 306 309 310 313 314 315 315 313 311 306 304 305 306 307 309 311 310 309 306 305 306 305 293 283 271
291 290 293 297 301 303 300 303 304 306 310 312 313 313 315 314 311 308 306 305 304 304 305 307 308 306 304 303 298 302 301 293
Height
3177 3176 3176 3174 3174 3174 3175 3175 3177 3177 3178 3179 3180 3181 3183 3185 3185 3183 3182 3182 3184 3185 3188 3192 3195 3199 3201 3204 3206 3207 3209 3210
3178 3175 3172 3170 3169 3167 3167 3167 3168 3169 3170 3171 3172 3173 3174 3176 3176 3174 3155 3166 3177 3179 3178 3182 3186 3190 3194 3197 3200 3203 3204 3206
3177 3175 3173 3170 3167 3164 3162 3161 3160 3160 3162 3162 3163 3164 3164 3165 3164 3162 3162 3155 3167 3170 3167 3171 3176 3180 3184 3188 3191 3195 3198 3200
3176 3173 3171 3168 3165 3162 3160 3157 3155 3154 3155 3154 3154 3154 3155 3155 3156 3155 3156 3159 3157 3135 3161 3160 3164 3170 3174 3179 3182 3185 3189 3192
3175 3172 3169 3167 3164 3161 3158 3155 3152 3150 3149 3148 3147 3146 3147 3147 3147 3146 3146 3146 3142 3145 3138 3155 3153 3160 3164 3169 3173 3176 3179 3183
3173 3171 3168 3165 3160 3158 3156 3153 3150 3147 3145 3143 3142 3140 3140 3139 3139 3139 3138 3138 3136 3134 3141 3141 3144 3152 3156 3159 3163 3166 3170 3174
3172 3169 3167 3163 3158 3155 3153 3150 3147 3145 3142 3139 3137 3135 3134 3132 3130 3131 3131 3130 3130 3127 3126 3131 3137 3131 3144 3150 3153 3157 3160 3164
3167 3164 3162 3159 3154 3151 3150 3147 3144 3142 3139 3136 3132 3129 3128 3127 3124 3123 3124 3124 3125 3125 3122 3124 3127 3127 3121 3137 3140 3146 3150 3152
3164 3160 3158 3155 3151 3146 3145 3144 3142 3139 3136 3133 3130 3126 3122 3121 3119 3117 3116 3116 3117 3118 3119 3117 3119 3119 3124 3121 3124 3120 3134 3140
3161 3158 3155 3151 3149 3145 3141 3140 3138 3135 3132 3129 3126 3123 3120 3116 3113 3112 3110 3108 3108 3109 3111 3111 3112 3112 3112 3114 3117 3115 3114 3130
3157 3155 3152 3148 3147 3144 3139 3137 3134 3131 3129 3126 3123 3120 3117 3113 3109 3106 3104 3103 3101 3101 3102 3103 3104 3104 3104 3104 3108 3109 3106 3113
3155 3152 3150 3148 3145 3141 3137 3133 3131 3128 3125 3122 3120 3117 3114 3111 3107 3102 3098 3097 3095 3094 3093 3094 3096 3097 3098 3099 3100 3099 3101 3100
3153 3150 3148 3146 3143 3139 3135 3131 3128 3125 3122 3119 3116 3113 3110 3107 3104 3101 3096 3092 3089 3087 3085 3084 3085 3087 3089 3091 3090 3090 3092 3093
3151 3148 3145 3142 3139 3135 3131 3127 3124 3121 3118 3115 3112 3109 3106 3103 3100 3096 3093 3090 3086 3082 3079 3076 3075 3075 3079 3082 3083 3083 3082 3083
3148 3145 3142 3138 3135 3131 3127 3123 3120 3117 3114 3110 3108 3105 3101 3098 3095 3092 3088 3085 3082 3079 3075 3071 3068 3066 3068 3071 3073 3074 3075 3076
3145 3141 3138 3135 3131 3127 3123 3119 3116 3112 3109 3105 3102 3099 3096 3094 3091 3088 3084 3081 3077 3074 3071 3069 3065 3061 3059 3059 3059 3062 3063 3065
3141 3137 3134 3130 3126 3122 3118 3114 3111 3107 3104 3100 3096 3093 3090 3087 3084 3081 3079 3076 3073 3069 3066 3063 3061 3058 3055 3052 3049 3048 3050 3052
3136 3133 3129 3125 3120 3117 3113 3109 3106 3103 3099 3095 3092 3088 3085 3082 3078 3075 3072 3070 3067 3065 3061 3058 3056 3052 3051 3047 3043 3039 3038 3039
3131 3128 3124 3120 3115 3112 3108 3105 3101 3098 3094 3091 3087 3083 3080 3077 3073 3070 3067 3064 3061 3058 3056 3053 3051 3047 3045 3042 3039 3035 3031 3029